This is the latest recevied weather packets stored in our database for station/object SP1BMW-13. If no packets are shown the sender has not sent any weather packets the latest 10 day(s).
| Time | Temp. | Humidity | Pressure | Rain* | Wind** | Luminosity | Snow |
|---|---|---|---|---|---|---|---|
| 1777387018 | 13.89° C | 31% | 1024.8 hPa | 0 mm | 1.79 m/s, 355° | 416 W/m² | - |
| 1777386958 | 14.44° C | 29% | 1024.8 hPa | 0 mm | 2.24 m/s, 2° | 419 W/m² | - |
| 1777386898 | 14.44° C | 29% | 1024.7 hPa | 0 mm | 2.24 m/s, 350° | 421 W/m² | - |
| 1777386839 | 14.44° C | 31% | 1024.9 hPa | 0 mm | 3.13 m/s, 344° | 423 W/m² | - |
| 1777386778 | 14.44° C | 28% | 1024.9 hPa | 0 mm | 3.58 m/s, 322° | 425 W/m² | - |
| 1777386718 | 14.44° C | 29% | 1024.8 hPa | 0 mm | 3.13 m/s, 310° | 427 W/m² | - |
| 1777386658 | 14.44° C | 30% | 1024.8 hPa | 0 mm | 1.34 m/s, 334° | 429 W/m² | - |
| 1777386598 | 14.44° C | 29% | 1024.7 hPa | 0 mm | 1.79 m/s, 302° | 432 W/m² | - |
| 1777386539 | 14.44° C | 29% | 1024.7 hPa | 0 mm | 1.34 m/s, 292° | 435 W/m² | - |
| 1777386478 | 14.44° C | 29% | 1024.9 hPa | 0 mm | 2.24 m/s, 323° | 437 W/m² | - |
| 1777386418 | 14.44° C | 28% | 1024.9 hPa | 0 mm | 3.13 m/s, 26° | 438 W/m² | - |
| 1777386358 | 14.44° C | 27% | 1024.8 hPa | 0 mm | 4.02 m/s, 71° | 439 W/m² | - |
| 1777386298 | 14.44° C | 29% | 1024.8 hPa | 0 mm | 2.68 m/s, 11° | 442 W/m² | - |
| 1777386238 | 14.44° C | 29% | 1024.8 hPa | 0 mm | 1.34 m/s, 28° | 443 W/m² | - |
| 1777386178 | 14.44° C | 29% | 1024.8 hPa | 0 mm | 0.89 m/s, 30° | 445 W/m² | - |
| 1777386118 | 14.44° C | 28% | 1024.8 hPa | 0 mm | 2.68 m/s, 338° | 449 W/m² | - |
| 1777386058 | 14.44° C | 30% | 1024.8 hPa | 0 mm | 0.89 m/s, 290° | 450 W/m² | - |
| 1777385998 | 14.44° C | 30% | 1024.7 hPa | 0 mm | 2.24 m/s, 23° | 452 W/m² | - |
| 1777385937 | 14.44° C | 29% | 1024.9 hPa | 0 mm | 2.68 m/s, 297° | 455 W/m² | - |
| 1777385877 | 14.44° C | 28% | 1024.6 hPa | 0 mm | 1.79 m/s, 312° | 457 W/m² | - |
| 1777385818 | 14.44° C | 29% | 1024.8 hPa | 0 mm | 0.89 m/s, 324° | 459 W/m² | - |
| 1777385758 | 14.44° C | 28% | 1024.8 hPa | 0 mm | 1.34 m/s, 309° | 460 W/m² | - |
| 1777385698 | 14.44° C | 28% | 1025 hPa | 0 mm | 2.24 m/s, 21° | 462 W/m² | - |
| 1777385638 | 14.44° C | 28% | 1024.8 hPa | 0 mm | 1.34 m/s, 296° | 464 W/m² | - |
| 1777385577 | 14.44° C | 28% | 1025 hPa | 0 mm | 2.24 m/s, 38° | 468 W/m² | - |
* Rain latest hour (hover to see other rain measurements)
** Current wind speed in m/s (hover to see current wind gust speed)